{"data":{"norad_id":51775,"intl_designator":"2022-017H","name":"STARLINK-3620","alt_names":[],"object_type":"PAYLOAD","status":"ACTIVE","operator":null,"country":"US","launch_date":"2022-02-25","launch_site_code":"AFWTR","launch_vehicle":null,"mission":null,"orbit_class":"UNKNOWN","rcs_meters":null,"size_class":null,"mass_kg":null,"dimensions":null,"purposes":["comms"],"wikipedia_slug":null,"has_3d_model":false,"image_url":null,"decayed_at":null,"tle_current":{"epoch":"2026-09-20T04:25:03.184896Z","epoch_age_seconds":79526,"freshness":"FRESH","line1":"1 51775U 22017H   26263.18406464  .00113209  00000+0  42115-3 0  9990","line2":"2 51775  53.2130 128.6831 0004338 139.2225 220.9126 15.87220615252774","mean_motion":15.87220615,"eccentricity":0.0004338,"inclination_deg":53.213,"raan_deg":128.6831,"arg_perigee_deg":139.2225,"mean_anomaly_deg":220.9126,"bstar":0.00042115,"rev_number":25277,"period_min":90.724628094627,"perigee_km":307.17796776944,"apogee_km":312.98066424521,"semimajor_km":6688.2163160073,"source":"CELESTRAK","updated_at":"2026-09-20T09:00:39.937333Z"}}}